Regional Weather Roundup
Issued by NWS

Home | Current Version | Previous Version | Graphics & Text | Print | Product List | Glossary On
Versions: 1 2 3 4 5 6 7 8 9 10 11 12 13 14 15 16 17 18 19 20 21 22 23 24 25 26 27
000
ASUS45 KBOI 310110
RWRID

IDAHO REGIONAL WEATHER ROUNDUP
NATIONAL WEATHER SERVICE BOISE ID
700 PM MDT MON MAY 30 2016

NOTE: "FAIR" INDICATES FEW OR NO CLOUDS BELOW 12000 FEET
WITH NO SIGNIFICANT WEATHER AND/OR OBSTRUCTIONS TO VISIBILITY

IDZ012-014-310200-
SOUTHWEST IDAHO


CITY           SKY/WX    TMP DP  RH WIND       PRES   REMARKS
BOISE          SUNNY     75  24  15 NW14      30.06F
CALDWELL       SUNNY     76  27  16 NW9       30.07F
MOUNTAIN HOME  SUNNY     78  33  19 NW21      30.05F
$$

IDZ016-017-310200-
SOUTHCENTRAL IDAHO


CITY           SKY/WX    TMP DP  RH WIND       PRES   REMARKS
BURLEY         SUNNY     69  27  20 W16G22    30.06F
JEROME         SUNNY     70  22  16 W22G32    30.07S
TWIN FALLS     SUNNY     70  29  21 W15       30.08F
$$

IDZ019>023-310200-
SOUTHEAST IDAHO


CITY           SKY/WX    TMP DP  RH WIND       PRES   REMARKS
IDAHO FALLS    MOSUNNY   68  31  25 S17G26    30.05S
POCATELLO      NOT AVBL
REXBURG        MOSUNNY   68  34  28 SW13      30.05S
$$

IDZ006-010-011-018-031-032-310200-
CENTRAL IDAHO MOUNTAINS


CITY           SKY/WX    TMP DP  RH WIND       PRES   REMARKS
MCCALL         SUNNY     63  29  27 W14       30.15R
HAILEY         MOSUNNY   70  37  30 SW12G17   30.06F
STANLEY          N/A     65  28  24 NW8       30.16S
SALMON         SUNNY     70  27  19 N5        30.05S
CHALLIS        SUNNY     68  28  22 NE14G21   30.06S
$$

IDZ002-004-006-007-026-310200-
NORTHERN IDAHO


CITY           SKY/WX    TMP DP  RH WIND       PRES   REMARKS
LEWISTON       SUNNY     74  31  20 NW6       30.14F
LOWELL           N/A     67  40  37 S5        30.13S
COEUR D`ALENE  SUNNY     70  34  26 SW9       30.13F
MULLAN PASS    SUNNY     53  25  33 VRB7      30.24R
$$




USA.gov is the U.S. government's official web portal to all federal, state and local government web resources and services.